Content
SEND FEEDBACK

Daily
Averages
Monthly
Summary
United States of America

YELLOWSTONE NATIONAL PARK, WYOMING


Home > North America > United States > Wyoming
Elevation: 7938 feet     Latitude: 44 34N     Longitude: 110 24W

WEATHER
 
SELECT A DAY
Number of Records: 295,507;   Date Range: 1/1/95 - 9/16/14
 
SHARE

PRINT THIS DATA

[ ← Previous Day ]
WEATHER ALMANAC - MARCH 29, 2013
[ Next Day → ]
[ °C ]   °F
Weather ElementAverageHighLow
Temperature29.8 °F43 °F (2:56 pm)17.1 °F (4:56 am)
Dewpoint22.1 °F30.9 °F (10:56 pm)12.9 °F (4:56 am)
Humidity75 %96 % (10:56 pm)45 % (2:56 pm)
Barometer30.23 in30.28 in (9:56 am)30.17 in (3:56 am)
Wind Speed2.1 mph8.1 mph (3:56 pm)
Wind Gust17.3 mph (5:56 pm)
Weather ElementAverage
Wind DirectionNNE (24.3 °)

Weather ElementTotal
Precipitation0.21 in
Heating Degree Days35 (Base 65)
Averaged from 23 records on March 29, 2013
WEATHER CONDITIONS BREAKOUT
WIND DIRECTION BREAKOUT
WEATHER BY HOUR - MARCH 29, 2013
[ °C ]   °F
Local TimeTemperatureDewpointHumidityBarometerVisibilityWind DirectionWind SpeedGust SpeedPrecipitationEventsConditions
1:56 AM19.9 °F15.1 °F81 %30.20 inCalm
2:56 AM19.9 °F15.1 °F81 %30.18 inCalm
3:56 AM19.9 °F15.1 °F81 %30.17 inCalm
4:56 AM17.1 °F12.9 °F84 %30.18 inCalm
5:56 AM17.1 °F12.9 °F84 %30.19 inCalm
6:56 AM18.0 °F14.0 °F84 %30.21 inCalm
7:56 AM19.9 °F16.0 °F85 %30.27 inCalm
8:56 AM26.1 °F18.0 °F71 %30.27 inCalm
9:56 AM26.1 °F19.0 °F75 %30.28 inCalm
10:56 AM28.0 °F19.9 °F72 %30.28 inCalm
11:56 AM28.9 °F26.1 °F89 %30.27 inCalm0.05 in
12:56 PM33.1 °F30.0 °F89 %30.26 inVariable3.5 mph0.03 in
1:56 PM41.0 °F27.0 °F57 %30.21 inVariable4.6 mph
2:56 PM43.0 °F23.0 °F45 %30.18 inVariable4.6 mph
3:56 PM42.1 °F21.9 °F45 %30.19 inWest (260°)8.1 mph
4:56 PM39.9 °F24.1 °F53 %30.21 inVariable5.8 mph16.1 mph
5:56 PM39.9 °F25.0 °F55 %30.22 inWNW (300°)5.8 mph17.3 mph
6:56 PM39.0 °F25.0 °F57 %30.23 inVariable4.6 mph
7:56 PM37.0 °F27.0 °F67 %30.23 inVariable4.6 mph
8:56 PM34.0 °F30.0 °F85 %30.24 inVariable5.8 mph
9:56 PM32.0 °F30.0 °F92 %30.25 inCalm0.03 in
10:56 PM32.0 °F30.9 °F96 %30.25 inCalm0.05 in
11:56 PM32.0 °F30.9 °F96 %30.23 inCalm0.05 in
Hourly data recorded from KP60, located miles away from Yellowstone National Park, Wyoming







STORIES FROM OUR PARTNERS